< < Back
Terminal Aerodrome Forecast


Current Version              Previous Versions:   1  2  3  4  5  6  7  8  9  

Terminal Aerodrome Forecast

701
FTUS42 KMLB 300800 AAB
TAFMCO
TAF AMD
KMCO 300858Z 3009/0106 24005KT P6SM OVC006
     FM301200 25006KT P6SM VCSH SCT010 BKN020
     FM301600 28007KT P6SM VCSH SCT010 OVC035
      TEMPO 3016/3020 3SM SHRA BKN025
     FM302000 29007KT P6SM SCT020 OVC040
      TEMPO 3020/3023 2SM SHRA BKN020
     FM010000 30004KT P6SM VCSH SCT020 BKN040
     FM010300 31003KT P6SM SCT020 SCT100 BKN250=



Latest METAR

657
SAUS70 KWBC 301100 RRD
MTRMCO
METAR KMCO 301053Z 24003KT 10SM -RA FEW005 BKN008 OVC035 23/23 A2985 RMK
AO2 RAB42 SLP106 P0000 T02280228 $


USA.gov is the U.S. government's official web portal to all federal, state and local government web resources and services.